RH
4 6 14 34 31 44 38 47 62 59 60 48 41 49 43 45 49 49 76 79 81 88 84 76 48 36 22 12 13 14 19 12 15 21 26 22 20 27 42 56 92 90 58 60
4 5 8 8 20 28 43 46 53 49 39 29 35 28 22 40 46 60 71 69 71 66 83 66 38 62 36 32 27 37 38 34 27 25 31 33 27 23 27 45 78 92 96 91
5 7 4 6 8 8 40 46 40 44 60 48 38 45 33 31 40 46 44 49 63 45 64 75 63 47 61 56 33 36 31 35 30 38 36 37 37 30 26 24 32 56 69 97
5 5 4 4 5 8 29 48 41 41 29 37 48 62 59 28 25 31 23 31 45 22 36 58 45 34 63 70 55 41 24 32 32 38 38 40 40 35 34 38 37 50 77 91
7 6 5 5 6 10 16 23 24 23 29 36 39 26 53 58 48 38 28 21 24 38 19 16 23 29 61 74 62 48 39 30 33 36 36 45 45 44 40 38 47 50 63 86
7 7 6 7 7 6 12 15 32 24 29 36 40 42 63 51 53 44 34 37 46 51 20 25 40 43 53 59 51 51 47 45 40 39 34 42 48 47 46 45 48 51 71 72
6 6 5 5 6 7 14 21 22 35 45 54 56 54 58 51 54 48 40 42 41 36 20 36 33 24 43 68 60 54 55 56 37 31 37 41 48 49 54 51 47 52 59 76
8 6 6 6 7 8 13 18 36 53 58 69 67 53 52 46 47 59 53 50 39 32 34 31 37 19 23 54 50 61 64 66 47 41 36 37 38 44 54 60 56 51 45 61
8 7 8 8 10 12 26 44 62 60 51 47 62 53 48 39 38 62 53 49 46 36 20 15 22 19 18 25 47 52 66 58 48 39 36 35 36 33 41 59 65 59 42 50
10 10 11 12 12 18 42 48 60 69 64 62 71 57 53 44 35 51 42 40 50 54 45 21 10 17 26 30 37 42 49 50 46 37 30 26 24 24 26 41 68 61 58 60
12 13 15 14 12 16 30 33 37 66 78 67 51 56 50 43 40 39 42 35 37 48 37 24 18 12 30 40 41 57 51 51 37 29 19 12 12 12 12 14 57 63 65 71
16 16 15 14 12 14 20 36 51 82 68 69 56 55 52 42 43 49 52 48 35 49 65 49 31 18 23 29 37 34 30 25 22 14 11 8 9 11 11 15 35 68 75 74
18 15 18 16 14 11 15 18 28 47 87 67 56 45 47 41 37 34 39 48 44 36 45 57 39 22 34 57 39 50 45 22 12 15 23 19 18 24 34 32 35 65 71 70
20 18 18 15 17 20 19 25 23 70 80 56 50 50 52 42 35 40 34 33 27 33 26 44 54 49 28 36 46 18 41 53 38 31 33 37 42 54 76 50 51 66 71 73
27 23 24 26 34 36 42 42 62 68 90 46 48 56 53 51 33 28 44 55 50 32 20 40 68 85 93 51 25 8 6 23 35 35 38 48 59 84 68 62 67 71 81 79
57 47 34 34 41 44 45 52 42 42 71 77 69 61 58 49 44 24 38 41 56 75 48 29 58 97 82 38 13 7 27 33 32 38 64 77 79 88 85 61 61 69 76 77
56 65 55 43 42 48 46 37 45 44 54 73 77 71 68 62 53 32 21 32 48 70 84 84 76 84 98 20 9 18 28 28 40 76 85 87 94 89 88 82 76 74 71 66
61 53 48 55 54 44 38 42 49 49 52 63 50 62 67 56 57 51 36 36 40 37 48 75 85 66 47 15 12 21 23 35 87 88 91 95 96 98 92 84 79 80 78 72
68 69 61 46 38 57 60 51 51 51 46 45 44 42 46 46 45 41 50 42 42 35 38 60 85 55 22 13 15 15 24 78 96 99 98 99 97 86 82 80 72 76 71 84
74 71 67 60 48 35 38 43 46 51 55 53 47 44 38 33 23 19 44 46 42 39 36 37 71 78 58 11 13 13 43 78 65 86 95 92 95 91 70 58 60 62 88 87
32 32 29 28 27 26 31 40 52 57 44 45 48 51 49 25 20 17 28 47 44 43 40 38 43 85 22 10 11 14 57 62 58 74 60 69 59 62 46 38 51 58 99 98
29 30 30 29 25 25 30 27 41 44 54 50 44 33 26 19 20 19 21 41 44 42 42 41 42 48 20 10 9 11 51 54 48 56 49 36 25 26 30 33 31 60 80 22
28 27 25 22 21 24 27 29 30 30 36 37 27 25 22 19 18 18 20 28 34 45 44 41 36 50 23 8 9 10 15 31 42 41 30 26 24 30 27 24 16 49 36 24
28 28 27 27 26 24 23 24 22 21 21 23 27 24 27 20 18 16 21 19 27 45 43 47 41 57 25 8 9 9 12 11 40 49 43 33 17 25 28 28 18 12 13 13
31 31 30 29 27 26 26 27 26 24 24 25 24 22 22 27 20 19 41 47 46 46 46 54 63 75 50 9 8 8 7 8 49 50 46 51 22 16 24 26 18 12 13 14
34 31 29 28 28 28 26 24 25 26 25 27 27 23 22 26 23 25 55 56 53 51 51 53 76 99 94 82 22 9 8 8 20 51 50 45 24 12 16 21 23 14 13 18
Wind_Speed
18 15 15 20 17 11 11 10 11 9 7 6 5 5 6 4 5 6 9 12 13 14 17 12 10 12 14 14 15 13 10 9 10 12 12 13 14 16 14 13 15 20 22 18
16 15 25 24 16 15 17 16 15 13 11 8 6 8 8 8 6 4 7 11 13 14 13 15 10 13 13 13 14 11 9 9 9 10 10 10 12 16 17 15 20 15 23 24
17 26 31 25 19 18 21 21 17 14 12 12 9 11 15 9 7 7 10 12 15 14 16 21 15 12 15 14 15 15 13 11 10 11 10 9 11 16 18 19 17 19 19 23
24 31 29 25 21 22 23 22 22 17 14 13 11 7 16 13 12 15 15 16 16 13 13 16 15 11 15 14 17 18 14 12 10 11 11 10 10 15 18 17 16 18 19 17
20 28 26 23 22 26 22 20 18 18 17 16 18 13 16 14 14 17 15 17 16 14 11 13 11 11 11 11 18 18 17 14 12 13 13 13 11 14 16 16 16 18 17 16
27 29 29 23 24 22 21 18 18 16 16 15 21 16 16 11 13 17 16 17 13 11 7 9 6 7 6 9 14 19 18 16 15 15 14 13 12 13 16 16 16 17 16 13
27 29 29 28 23 19 17 19 18 18 18 15 17 12 15 11 7 13 12 11 9 9 6 5 7 9 9 11 17 18 19 18 17 17 16 13 12 13 13 16 15 17 19 16
24 27 26 21 18 18 17 19 19 24 20 20 14 11 13 11 6 7 11 12 8 8 10 10 12 10 12 14 15 20 19 21 18 19 17 16 13 13 12 15 15 16 20 20
23 24 23 20 18 18 20 22 23 25 21 20 15 11 12 9 7 11 13 14 14 9 7 8 8 9 10 12 13 14 16 19 19 19 19 19 18 15 15 17 16 17 20 21
24 23 25 24 23 24 28 26 24 21 20 17 10 11 11 12 9 9 11 13 15 11 9 8 7 8 9 9 13 15 18 19 19 21 21 21 19 19 18 19 19 20 19 19
26 27 27 29 30 28 28 27 25 21 19 15 18 16 14 17 16 13 13 14 13 8 4 5 6 7 7 10 11 14 16 19 20 20 22 23 21 21 19 22 22 23 21 19
26 25 27 30 28 27 28 31 24 25 16 20 19 11 15 16 17 13 14 15 17 8 10 10 8 6 4 7 10 12 15 18 19 22 25 26 23 21 19 23 24 25 22 20
27 26 27 29 29 27 27 24 24 22 21 19 18 11 15 16 18 16 15 16 19 15 10 16 14 10 7 8 14 17 18 19 20 23 26 27 24 18 19 23 24 27 24 21
27 25 25 25 22 20 21 13 19 21 22 13 14 12 9 12 14 15 15 17 15 19 17 14 18 23 17 17 17 20 19 21 21 23 26 24 18 17 17 21 24 25 23 20
20 20 21 20 21 23 22 20 18 24 19 24 10 15 15 16 11 12 9 14 17 18 20 22 20 19 18 15 16 18 21 18 20 25 27 22 15 18 17 20 22 23 22 22
21 19 24 22 23 23 25 22 24 23 22 27 24 18 15 16 16 10 11 13 20 18 18 22 19 22 18 11 14 17 17 19 23 29 19 14 17 19 19 21 22 23 23 23
22 21 20 22 24 26 31 28 26 27 29 28 27 21 23 24 21 19 14 13 15 16 18 21 23 22 17 11 13 17 18 20 27 20 10 12 18 21 21 21 22 23 24 23
20 20 23 26 25 33 28 25 26 28 27 30 29 28 30 30 28 26 20 18 21 21 20 23 24 25 21 9 10 18 18 23 11 8 11 13 18 19 19 18 19 21 21 21
30 29 29 28 28 30 30 30 27 24 20 25 30 27 26 30 37 30 24 21 22 24 18 18 19 24 16 10 11 16 15 10 7 9 13 18 19 20 17 14 14 18 20 23
41 41 38 36 37 35 29 29 27 27 26 24 23 23 26 29 32 23 28 25 25 25 25 21 18 16 15 13 12 12 13 6 3 6 10 15 18 18 17 15 12 10 17 22
38 40 39 36 38 38 35 32 29 31 28 26 26 28 32 28 24 22 25 27 28 24 25 21 18 16 12 15 14 10 7 5 5 10 11 14 14 17 15 15 14 6 30 32
35 37 38 37 38 41 37 36 37 34 34 30 29 28 29 26 21 20 22 27 30 24 22 20 17 15 16 17 15 13 12 10 9 12 15 12 12 15 15 16 15 15 22 18
38 38 38 40 40 41 41 42 41 40 38 35 29 28 29 26 21 21 20 24 26 23 22 26 17 14 17 18 16 15 18 16 16 17 12 12 13 16 12 13 17 21 23 20
38 38 42 43 43 43 43 44 43 41 40 39 35 29 29 28 24 22 14 19 23 24 22 23 17 17 17 20 17 16 17 17 25 23 17 10 14 16 15 15 16 22 25 24
41 41 43 44 47 48 48 45 44 44 43 42 38 33 28 30 25 24 18 20 23 23 22 21 20 17 18 22 22 19 17 17 18 31 23 21 16 17 18 17 18 20 22 21
43 44 45 45 46 48 49 50 49 48 45 44 42 38 32 29 29 27 24 23 25 26 25 21 25 18 19 19 23 24 23 20 24 31 27 26 22 20 22 23 22 22 23 25
Wind_Direction
237 235 234 239 246 249 234 226 238 236 237 239 236 249 293 306 299 333 337 342 303 272 290 278 275 262 265 265 257 250 255 256 253 263 272 263 259 254 262 249 243 219 208 205
237 238 237 241 245 251 244 241 247 259 255 247 271 290 289 300 333 340 343 327 324 297 266 283 266 251 256 261 254 239 236 247 245 251 265 275 265 253 247 245 243 236 215 214
218 223 235 238 243 249 238 243 251 269 260 276 273 283 281 291 298 297 317 317 319 305 277 257 269 252 236 260 259 250 246 233 240 246 256 270 268 258 251 244 244 239 246 220
210 224 232 235 237 242 232 242 252 257 271 277 280 246 287 294 310 305 303 309 299 308 299 271 265 268 232 251 264 264 255 252 245 255 265 267 269 258 259 259 256 239 238 255
208 228 236 238 235 237 235 242 254 267 276 271 268 262 271 298 308 311 312 292 279 276 301 282 261 271 244 228 256 260 258 253 250 257 266 266 266 263 252 257 252 239 232 236
209 216 231 232 230 237 243 239 248 261 267 267 269 274 287 296 295 308 320 323 313 271 280 279 278 264 234 244 254 253 261 264 258 257 262 264 265 259 254 252 248 240 219 207
221 222 230 231 225 237 242 240 254 269 272 266 269 280 277 289 313 315 322 326 318 283 274 296 317 311 263 244 256 253 255 261 265 258 258 256 255 257 257 255 249 236 220 222
227 230 242 246 242 239 228 240 254 256 266 263 273 278 275 285 285 295 325 326 299 291 314 296 323 317 292 234 251 242 260 253 255 256 257 258 254 255 254 249 245 239 219 213
225 225 237 240 242 239 230 235 240 252 260 266 254 259 277 279 266 271 297 306 309 316 333 326 316 319 276 263 255 255 248 249 252 256 257 258 259 254 250 247 243 235 220 219
217 217 224 230 231 227 229 229 243 255 261 255 240 256 269 272 259 253 282 299 313 293 304 310 320 322 278 273 264 258 249 249 256 260 260 260 260 259 251 247 236 226 217 221
213 213 219 227 226 225 233 237 242 247 256 258 258 258 264 261 262 268 268 280 300 301 265 276 312 317 261 273 264 265 261 260 264 270 272 270 267 260 252 247 233 227 222 226
212 214 219 229 235 233 229 234 230 236 250 251 260 253 245 251 261 263 271 267 284 284 292 293 289 301 313 304 288 275 272 270 271 274 275 275 271 264 248 237 228 225 223 221
210 214 214 227 234 236 235 241 236 230 239 245 255 230 235 259 264 269 269 269 278 295 288 294 301 281 253 311 302 282 282 276 279 279 279 280 271 256 241 229 219 221 224 221
216 215 225 242 250 251 249 258 248 233 234 244 248 225 225 264 277 295 302 297 297 284 288 280 285 273 257 281 293 289 282 281 277 280 284 284 263 238 233 216 208 217 218 218
222 225 229 230 233 235 242 234 227 230 248 246 215 236 245 242 264 304 349 333 318 289 285 291 276 268 267 289 292 286 284 285 280 283 286 275 237 224 214 205 206 212 212 212
226 233 238 226 220 229 235 230 233 232 230 246 258 256 258 252 282 295 296 314 330 331 311 299 284 258 282 277 287 282 285 284 285 291 278 242 216 204 200 201 205 213 213 213
224 230 236 235 217 218 228 235 235 237 236 242 252 262 258 262 272 286 276 309 312 326 321 303 284 257 269 272 278 277 281 294 296 281 225 219 201 197 196 203 211 219 219 217
234 235 228 231 233 232 238 232 238 241 246 247 257 257 262 266 268 271 281 288 297 310 311 315 257 259 263 261 259 271 293 307 283 216 191 195 195 197 193 198 212 228 226 222
239 244 244 245 233 236 240 238 239 245 250 254 254 261 261 263 265 261 267 279 291 302 311 324 274 256 262 241 245 269 298 287 191 175 191 196 195 192 181 187 205 226 226 202
240 245 248 249 253 248 237 238 236 239 243 246 255 265 271 275 276 271 255 264 279 293 309 321 306 288 259 235 242 266 299 184 201 190 190 199 193 199 178 171 188 240 199 188
240 242 247 247 250 255 251 246 247 251 248 253 262 270 274 273 278 263 241 250 267 279 295 308 313 281 247 225 234 245 259 180 198 181 175 160 164 173 176 175 187 209 168 171
241 245 247 249 246 247 249 252 253 255 258 259 264 269 270 270 269 263 249 247 258 271 283 291 291 284 239 216 227 228 218 193 194 192 182 201 185 191 179 177 173 170 148 159
242 244 247 249 251 251 247 248 253 256 257 258 259 265 265 265 264 254 250 246 253 250 268 285 282 264 245 216 217 222 234 218 208 202 204 207 204 197 201 186 173 168 167 182
245 245 246 247 249 250 252 252 254 255 257 260 260 254 254 260 258 252 239 228 230 241 254 265 271 239 229 217 218 224 236 227 205 204 208 232 218 217 211 199 190 181 188 195
250 249 248 248 249 249 251 253 253 257 259 260 260 256 250 250 246 243 230 227 225 237 240 250 248 228 223 215 220 222 233 224 223 206 224 234 239 218 215 214 201 195 187 192
252 253 252 252 250 250 250 251 252 253 254 256 259 259 252 239 243 233 228 229 228 233 239 246 257 222 234 243 229 225 227 228 210 216 234 243 245 227 221 215 209 204 202 200